Flag for Poland Weather past 2 weeks in Kalisz, Poland

Now
77 °F

Passing clouds.


Feels Like: 78 °F
Forecast: 63 / 92 °F
Wind: 3 mph from East

Location: Kalisz

Current Time: Aug 3, 2015 at 11:54:05 PM

Latest Report: Aug 3, 2015 at 10:00 PM


Visibility: 22 mi

Pressure: 30.06 "Hg

Humidity: 38%

Dew point: 50 °F

Location of KaliszLocation

Historic Weather in Kalisz — Graph

°F

Kalisz temperature yesterday

Maximum temperature yesterday: 81 °F (at 3:00 PM)
Minimum temperature yesterday: 59 °F (at 6:00 AM)
Average temperature yesterday: 71 °F

Past Weeks' High & Low Weather Summary

 TemperatureHumidityPressure
High89 °F (Jul 22, 4:00 PM)100% (Jul 22, 6:00 AM)30.15 "Hg (Jul 22, 6:00 AM)
Low48 °F (Aug 1, 4:00 AM)26% (Aug 3, 5:00 PM)29.59 "Hg (Jul 25, 1:00 PM)
Average67 °F61%29.90 "Hg
* Reported Jul 19 10:00 PM — Aug 3 10:00 PM, Kalisz, Weather by CustomWeather, © 2015

Note: Actual official high and low records may vary slightly from our data, if they occured in-between our weather recording intervals... More about our weather records

Advertising

Kalisz weather history for previous 24 hours

 ConditionsComfort  
Time TempWeatherWind HumidityBarometerVisibility
10:00 PM
Mon, Aug 3
77 °FPassing clouds.3 mph38%30.06 "Hg22 mi
9:00 PM79 °FPassing clouds.3 mph36%30.06 "Hg22 mi
8:00 PM82 °FPassing clouds.3 mph35%30.05 "Hg17 mi
7:00 PM86 °FPassing clouds.2 mph29%30.05 "Hg22 mi
6:00 PM87 °FPassing clouds.2 mph26%30.05 "Hg25 mi
5:00 PM87 °FPassing clouds.2 mph26%30.06 "Hg22 mi
4:00 PM87 °FPassing clouds.3 mph27%30.07 "Hg19 mi
3:00 PM87 °FPassing clouds.2 mph28%30.08 "Hg17 mi
2:00 PM85 °FPassing clouds.2 mph29%30.09 "Hg15 mi
1:00 PM86 °FPassing clouds.2 mph31%30.09 "Hg17 mi
12:00 PM84 °FSunny.2 mph31%30.11 "Hg19 mi
11:00 AM82 °FSunny.2 mph34%30.11 "Hg19 mi
10:00 AM78 °FPassing clouds.2 mph38%30.12 "Hg17 mi
9:00 AM75 °FPassing clouds.2 mph46%30.12 "Hg19 mi
8:00 AM67 °FOvercast.1 mph66%30.13 "Hg10 mi
7:00 AM64 °FOvercast.1 mph71%30.13 "Hg7 mi
5:00 AM59 °FPassing clouds.1 mph81%30.13 "Hg9 mi
4:00 AM58 °FPassing clouds.1 mph78%30.12 "Hg9 mi
3:00 AM62 °FPassing clouds.2 mph68%30.13 "Hg12 mi
2:00 AM62 °FPassing clouds.1 mph70%30.13 "Hg12 mi
1:00 AM65 °FPassing clouds.2 mph62%30.13 "Hg19 mi
12:00 AM66 °FPassing clouds.1 mph60%30.13 "Hg19 mi
11:00 PM
Sun, Aug 2
68 °FClear.1 mph53%30.13 "Hg19 mi
Weather by CustomWeather, © 2015

See weather overviewHow to use our weather pages